Weather History for Bolton Field, OH

Change the Weather History Date:

Saturday, June 14, 2014

  Actual Average Record
Temperature  
Mean Temperature 59 °F -  
Max Temperature 73 °F 78 °F 89 °F (2001)
Min Temperature 45 °F 61 °F 45 °F (2014)
Degree Days  
Heating Degree Days 6    
Growing Degree Days 9 (Base 50)    
Moisture  
Dew Point 48 °F    
Average Humidity 70    
Maximum Humidity 97    
Minimum Humidity 38    
Precipitation  
Precipitation 0.00 in - - ()
Sea Level Pressure  
Sea Level Pressure 30.10 in    
Wind  
Wind Speed 4 mph (NNW)    
Max Wind Speed 10 mph    
Max Gust Speed -    
Visibility 10 miles    
Events      
Averages and records for this station are not official NWS values.
T = Trace of Precipitation, MM = Missing Value Source: NWS Daily Summary

Daily Weather History Graph

Daily Weather History Graph

Search for Another Location

Airport:

Trip Planner

Search our weather history database for the weather conditions in past years. The results will help you decide how hot, cold, wet, or windy it might be!

Date:

Astronomy

Jun. 14, 2014 Rise Set
Actual Time 6:03 AM EDT 9:02 PM EDT
Civil Twilight 5:30 AM EDT 9:35 PM EDT
Nautical Twilight 4:49 AM EDT 10:16 PM EDT
Astronomical Twilight 4:01 AM EDT 11:04 PM EDT
Moon 10:25 PM EDT (6/14) 7:46 AM EDT (6/14)
Length of Visible Light 16h 04m
Length of Day
14h 59m
Full, 97% of the Moon is Illuminated
Jun 14
Full
Jun 19
Last Quarter
Jun 27
New
Jul 5
First Quarter
Jul 12
Full

Hourly Weather History & Observations

Time (EDT) Temp. Dew Point Humidity Pressure Visibility Wind Dir Wind Speed Gust Speed Precip Events Conditions
12:15 AM 59.2 °F 49.5 °F 70% 30.04 in 10.0 mi NW 6.9 mph - N/A   Clear
12:35 AM 58.6 °F 48.2 °F 68% 30.04 in 10.0 mi NW 9.2 mph - N/A   Clear
12:55 AM 57.7 °F 47.8 °F 70% 30.04 in 10.0 mi NNW 10.4 mph - N/A   Clear
1:15 AM 57.2 °F 47.8 °F 71% 30.04 in 10.0 mi NNW 9.2 mph - N/A   Clear
1:35 AM 56.5 °F 47.8 °F 73% 30.05 in 10.0 mi NNW 8.1 mph - N/A   Clear
1:55 AM 55.4 °F 47.7 °F 75% 30.06 in 10.0 mi NNW 6.9 mph - N/A   Clear
2:15 AM 54.0 °F 47.5 °F 79% 30.07 in 10.0 mi North 3.5 mph - N/A   Clear
2:35 AM 53.8 °F 47.5 °F 79% 30.07 in 10.0 mi Calm Calm - N/A   Clear
2:55 AM 52.3 °F 47.3 °F 83% 30.07 in 10.0 mi Calm Calm - N/A   Clear
3:15 AM 48.4 °F 45.9 °F 91% 30.07 in 10.0 mi Calm Calm - N/A   Clear
3:35 AM 48.4 °F 46.2 °F 92% 30.07 in 10.0 mi Calm Calm - N/A   Clear
3:55 AM 50.2 °F 46.8 °F 88% 30.08 in 10.0 mi WNW 4.6 mph - N/A   Clear
4:15 AM 51.8 °F 47.1 °F 84% 30.08 in 10.0 mi WNW 4.6 mph - N/A   Clear
4:35 AM 48.4 °F 46.0 °F 92% 30.08 in 10.0 mi Calm Calm - N/A   Clear
4:55 AM 50.0 °F 47.7 °F 92% 30.09 in 10.0 mi WNW 3.5 mph - N/A   Clear
5:15 AM 47.8 °F 45.5 °F 92% 30.09 in 10.0 mi NW 3.5 mph - N/A   Clear
5:35 AM 46.8 °F 45.5 °F 95% 30.10 in 10.0 mi Calm Calm - N/A   Clear
5:55 AM 46.8 °F 46.0 °F 97% 30.11 in 10.0 mi Calm Calm - N/A   Clear
6:15 AM 45.9 °F 45.1 °F 97% 30.11 in 10.0 mi Calm Calm - N/A   Clear
6:55 AM 47.8 °F 46.9 °F 97% 30.12 in 10.0 mi Calm Calm - N/A   Clear
7:10 AM 49.3 °F 48.6 °F 97% 30.12 in 10.0 mi Calm Calm - N/A   Clear
7:22 AM 51.8 °F 48.2 °F 88% 30.13 in 10.0 mi Calm Calm - N/A   Clear
7:50 AM 53.6 °F 50.0 °F 88% 30.14 in 10.0 mi Calm Calm - N/A   Clear
8:50 AM 59.0 °F 48.2 °F 67% 30.14 in 10.0 mi NE 3.5 mph - N/A   Clear
9:50 AM 62.6 °F 46.4 °F 55% 30.15 in 10.0 mi NNE 4.6 mph - N/A   Clear
10:58 AM 64.4 °F 46.4 °F 52% 30.16 in 10.0 mi North 5.8 mph - N/A   Clear
11:50 AM 66.2 °F 44.6 °F 46% 30.16 in 10.0 mi NNW 9.2 mph - N/A   Clear
1:50 PM 69.8 °F 44.6 °F 40% 30.15 in 10.0 mi North 6.9 mph - N/A   Clear
2:50 PM 71.6 °F 46.4 °F 41% 30.13 in 10.0 mi NE 8.1 mph - N/A   Clear
3:50 PM 73.4 °F 46.4 °F 38% 30.12 in 10.0 mi NNW 5.8 mph - N/A   Clear
6:50 PM 73.4 °F 46.4 °F 38% 30.09 in 10.0 mi NE 3.5 mph - N/A   Clear
7:35 PM 73.2 °F 46.6 °F 39% 30.09 in 10.0 mi SE 3.5 mph - N/A   Clear
7:55 PM 72.7 °F 46.2 °F 39% 30.09 in 10.0 mi Calm Calm - N/A   Clear
8:15 PM 71.6 °F 47.1 °F 42% 30.10 in 10.0 mi SSE 4.6 mph - N/A   Clear
8:30 PM 71.4 °F 46.4 °F 41% 30.10 in 10.0 mi Calm Calm - N/A   Clear
8:55 PM 67.8 °F 50.0 °F 53% 30.10 in 10.0 mi Calm Calm - N/A   Clear
9:15 PM 65.7 °F 50.5 °F 58% 30.10 in 10.0 mi Calm Calm - N/A   Clear
9:35 PM 64.8 °F 49.5 °F 58% 30.10 in 10.0 mi Calm Calm - N/A   Clear
9:55 PM 63.3 °F 49.6 °F 61% 30.10 in 10.0 mi Calm Calm - N/A   Clear
10:15 PM 62.2 °F 49.6 °F 63% 30.10 in 10.0 mi Calm Calm - N/A   Clear
10:35 PM 59.9 °F 50.9 °F 72% 30.11 in 10.0 mi Calm Calm - N/A   Clear
10:55 PM 59.4 °F 51.3 °F 75% 30.11 in 10.0 mi Calm Calm - N/A   Clear
11:15 PM 60.8 °F 50.0 °F 68% 30.11 in 10.0 mi Calm Calm - N/A   Clear
11:35 PM 60.8 °F 49.3 °F 66% 30.12 in 10.0 mi SE 3.5 mph - N/A   Clear
11:55 PM 61.7 °F 49.1 °F 63% 30.12 in 10.0 mi Calm Calm - N/A   Clear